Weather History for Albany, NY

Change the Weather History Date:

Monday, September 3, 2012

  Actual Average Record
Temperature  
Mean Temperature 68 °F 67 °F  
Max Temperature 80 °F 77 °F 100 °F (1953)
Min Temperature 55 °F 56 °F 39 °F (1976)
Degree Days  
Heating Degree Days 0 2  
Month to date heating degree days 0 5  
Since 1 July heating degree days 2 28  
Cooling Degree Days 3 3  
Month to date cooling degree days 15 11  
Year to date cooling degree days 769 554  
Growing Degree Days 18 (Base 50)    
Moisture  
Dew Point 56 °F    
Average Humidity 68    
Maximum Humidity 93    
Minimum Humidity 42    
Precipitation  
Precipitation 0.00 in 0.10 in 1.16 in (1974)
Month to date precipitation 0.00 0.29  
Year to date precipitation 22.96 26.44  
Sea Level Pressure  
Sea Level Pressure 30.14 in    
Wind  
Wind Speed 7 mph (South)    
Max Wind Speed 17 mph    
Max Gust Speed 23 mph    
Visibility 10 miles    
Events Fog    
T = Trace of Precipitation, MM = Missing Value Source: NWS Daily Summary

Daily Weather History Graph

Daily Weather History Graph

Search for Another Location

Airport:

Trip Planner

Search our weather history database for the weather conditions in past years. The results will help you decide how hot, cold, wet, or windy it might be!

Date:

Astronomy

Sep. 03, 2012 Rise Set
Actual Time 6:22 AM EDT 7:25 PM EDT
Civil Twilight 5:53 AM EDT 7:54 PM EDT
Nautical Twilight 5:19 AM EDT 8:28 PM EDT
Astronomical Twilight 4:42 AM EDT 9:04 PM EDT
Moon 8:36 PM EDT (9/3) 9:34 AM EDT (9/3)
Length of Visible Light 14h 00m
Length of Day
13h 02m
Waning Gibbous, 90% of the Moon is Illuminated
Sep 3
Waning Gibbous
Sep 8
Last Quarter
Sep 15
New
Sep 22
First Quarter
Sep 29
Full

Hourly Weather History & Observations

Time (EDT) Temp. Heat Index Dew Point Humidity Pressure Visibility Wind Dir Wind Speed Gust Speed Precip Events Conditions
12:51 AM 61.0 °F - 54.0 °F 78% 30.13 in 10.0 mi Calm Calm - N/A   Clear
1:51 AM 59.0 °F - 55.0 °F 87% 30.14 in 10.0 mi Calm Calm - N/A   Clear
2:51 AM 57.9 °F - 54.0 °F 87% 30.14 in 10.0 mi Calm Calm - N/A   Clear
3:51 AM 57.9 °F - 54.0 °F 87% 30.14 in 10.0 mi Calm Calm - N/A   Partly Cloudy
4:51 AM 57.9 °F - 55.0 °F 90% 30.15 in 10.0 mi Calm Calm - N/A   Scattered Clouds
5:51 AM 55.9 °F - 54.0 °F 93% 30.16 in 10.0 mi Calm Calm - N/A Fog Shallow Fog
6:51 AM 55.9 °F - 54.0 °F 93% 30.17 in 10.0 mi Calm Calm - N/A Fog Shallow Fog
7:51 AM 59.0 °F - 55.9 °F 90% 30.17 in 10.0 mi Calm Calm - N/A   Scattered Clouds
8:51 AM 62.6 °F - 57.2 °F 82% 30.18 in 10.0 mi Calm Calm - N/A   Scattered Clouds
9:51 AM 71.1 °F - 55.9 °F 59% 30.18 in 10.0 mi South 5.8 mph - N/A   Partly Cloudy
10:51 AM 73.9 °F - 55.0 °F 52% 30.18 in 10.0 mi South 10.4 mph 18.4 mph N/A   Mostly Cloudy
11:51 AM 75.9 °F - 53.1 °F 45% 30.16 in 10.0 mi SSE 11.5 mph 23.0 mph N/A   Scattered Clouds
12:51 PM 79.0 °F - 57.0 °F 47% 30.15 in 10.0 mi SSW 11.5 mph 18.4 mph N/A   Partly Cloudy
1:51 PM 80.1 °F 80.2 °F 55.9 °F 43% 30.14 in 10.0 mi South 12.7 mph 20.7 mph N/A   Scattered Clouds
2:51 PM 80.1 °F 80.2 °F 55.9 °F 43% 30.13 in 10.0 mi South 13.8 mph - N/A   Scattered Clouds
3:51 PM 79.0 °F - 57.9 °F 48% 30.12 in 10.0 mi South 10.4 mph - N/A   Scattered Clouds
4:51 PM 77.0 °F - 57.9 °F 52% 30.12 in 10.0 mi South 12.7 mph 18.4 mph N/A   Mostly Cloudy
5:51 PM 73.9 °F - 57.0 °F 55% 30.11 in 10.0 mi South 9.2 mph - N/A   Mostly Cloudy
6:51 PM 73.0 °F - 57.0 °F 57% 30.11 in 10.0 mi South 10.4 mph - N/A   Mostly Cloudy
7:51 PM 71.1 °F - 55.9 °F 59% 30.11 in 10.0 mi South 8.1 mph - N/A   Mostly Cloudy
8:51 PM 71.1 °F - 57.9 °F 63% 30.11 in 10.0 mi South 8.1 mph - N/A   Mostly Cloudy
9:51 PM 70.0 °F - 55.9 °F 61% 30.11 in 10.0 mi South 9.2 mph 16.1 mph N/A   Mostly Cloudy
10:51 PM 69.1 °F - 57.9 °F 68% 30.12 in 10.0 mi South 10.4 mph - N/A   Mostly Cloudy
11:51 PM 69.1 °F - 57.9 °F 68% 30.11 in 10.0 mi South 5.8 mph - N/A   Overcast